This demonstration page uses our WeatherBlox Daily Observations layout. Learn more.

Left ArrowRight Arrow

40.92945, -100.16068

Hourly Observations for September 17, 2016

Temp ( °F °C ) Dew Point ( °F °C ) Humidity (%) Winds ( mph kmh ) Pressure ( in mb ) Visibility ( mi km ) Precip ( " mm )
12:15 am 00:15 Clear 52 10.9 49 9.4 91 91 W 6 9 30.03 1017 10 16 N/A
12:35 am 00:35 Clear 52 11 48 9 88 88 W 3 6 30.03 1017 10 16 N/A
12:55 am 00:55 Clear 51 10.6 48 8.8 89 89 W 5 7 30.03 1017 10 16 N/A
1:15 am 01:15 Clear 51 10.3 48 8.7 90 90 W 5 7 30.03 1017 10 16 N/A
1:35 am 01:35 Clear 51 10.3 47 8.4 88 88 W 5 7 30.03 1017 10 16 N/A
1:55 am 01:55 Clear 50 10 47 8.1 88 88 WNW 3 6 30.06 1018 10 16 N/A
2:15 am 02:15 Clear 49 9.2 46 7.7 90 90 N N/A 30.09 1019 10 16 N/A
2:35 am 02:35 Clear 50 9.8 46 8 89 89 NNW 3 6 30.09 1019 10 16 N/A
2:55 am 02:55 Clear 49 9.2 46 7.7 90 90 NW 3 6 30.09 1019 10 16 N/A
3:15 am 03:15 Clear 48 8.8 45 7.2 90 90 NW 5 7 30.09 1019 10 16 N/A
3:35 am 03:35 Clear 48 8.9 45 7.1 89 89 NW 5 7 30.06 1018 10 16 N/A
3:55 am 03:55 Clear 47 8.5 44 6.8 89 89 W 3 6 30.06 1018 10 16 N/A
4:15 am 04:15 Clear 47 8.5 45 7 90 90 WNW 5 7 30.06 1018 10 16 N/A
4:35 am 04:35 Clear 47 8.5 45 7 90 90 W 6 9 30.06 1018 10 16 N/A
4:55 am 04:55 Clear 48 8.9 45 7 88 88 WNW 6 9 30.06 1018 10 16 N/A
5:15 am 05:15 Clear 48 8.7 44 6.8 88 88 WNW 6 9 30.06 1018 10 16 N/A
5:35 am 05:35 Clear 48 8.8 44 6.7 87 87 W 6 9 30.09 1019 10 16 N/A
5:55 am 05:55 Clear 47 8.6 44 6.6 87 87 WNW 5 7 30.09 1019 10 16 N/A
6:15 am 06:15 Clear 47 8.6 44 6.6 87 87 WNW 6 9 30.09 1019 10 16 N/A
6:35 am 06:35 Clear 47 8.5 44 6.7 89 89 WNW 5 7 30.09 1019 10 16 N/A
6:55 am 06:55 Clear 46 8 43 6.3 89 89 W 3 6 30.09 1019 10 16 N/A
7:15 am 07:15 Clear 46 7.8 43 6.2 90 90 W 5 7 30.09 1019 10 16 N/A
7:35 am 07:35 Sunny 46 7.9 44 6.5 91 91 W 6 9 30.09 1019 10 16 N/A
7:55 am 07:55 Sunny 47 8.5 44 6.8 89 89 W 5 7 30.09 1019 10 16 N/A
8:15 am 08:15 Sunny 49 9.4 46 7.6 89 89 WNW 5 7 30.09 1019 10 16 N/A
8:35 am 08:35 Sunny 51 10.6 47 8.3 86 86 WNW 6 9 30.12 1020 10 16 N/A
8:55 am 08:55 Sunny 53 11.5 47 8.5 82 82 WNW 5 7 30.06 1018 10 16 N/A
9:15 am 09:15 Sunny 55 12.6 49 9.3 80 80 WNW 5 7 30.09 1019 10 16 N/A
9:35 am 09:35 Sunny 57 13.7 49 9.3 75 75 WNW 5 7 30.09 1019 10 16 N/A
9:55 am 09:55 Sunny 59 14.9 50 10.2 74 74 WNW 5 7 30.06 1018 10 16 N/A
10:15 am 10:15 Sunny 61 15.9 51 10.5 71 71 W 3 6 30.06 1018 10 16 N/A
10:35 am 10:35 Sunny 63 17.3 53 11.4 68 68 N N/A 30.06 1018 10 16 N/A
10:55 am 10:55 Sunny 66 19.1 51 10.7 58 58 N N/A 30.00 1016 10 16 N/A
11:15 am 11:15 Sunny 70 21 52 11.3 54 54 N N/A 29.97 1015 10 16 N/A
11:35 am 11:35 Sunny 73 22.5 50 9.9 45 45 N N/A 29.97 1015 10 16 N/A
11:55 am 11:55 Sunny 75 23.7 50 10.1 42 42 S 6 9 29.97 1015 10 16 N/A
12:15 pm 12:15 Sunny 76 24.6 46 8 35 35 SW 9 15 29.94 1014 10 16 N/A
12:35 pm 12:35 Sunny 77 24.9 45 7.3 33 33 SSW 9 15 29.94 1014 10 16 N/A
12:55 pm 12:55 Sunny 78 25.5 45 7 31 31 SW 12 19 29.91 1013 10 16 N/A
1:15 pm 13:15 Sunny 78 25.7 45 7.4 31 31 SSW 13 20 29.91 1013 10 16 N/A
1:35 pm 13:35 Sunny 78 25.8 46 7.5 31 31 SSW 15 24 29.91 1013 10 16 N/A
1:55 pm 13:55 Partly Cloudy 79 26.3 44 6.8 29 29 SSW 14 22 29.91 1013 10 16 N/A
2:15 pm 14:15 Sunny 77 24.8 45 7.4 33 33 SSW 9 15 29.91 1013 10 16 N/A
2:35 pm 14:35 Sunny 78 25.3 46 7.7 33 33 SSW 8 13 29.91 1013 10 16 N/A
2:55 pm 14:55 Partly Cloudy 79 26 45 7.2 30 30 SSW 7 11 29.91 1013 10 16 N/A
3:15 pm 15:15 Mostly Cloudy 77 25.2 47 8.5 35 35 SSW 7 11 29.91 1013 10 16 N/A
3:35 pm 15:35 Partly Cloudy 75 24 51 10.5 43 43 SSW 6 9 29.88 1012 10 16 N/A
3:55 pm 15:55 Partly Cloudy 77 25 50 9.8 38 38 S 9 15 29.88 1012 10 16 N/A
4:15 pm 16:15 Mostly Cloudy 75 24.1 50 9.9 41 41 S 8 13 29.88 1012 10 16 N/A
4:35 pm 16:35 Mostly Cloudy 77 24.9 49 9.6 38 38 N N/A 29.85 1011 10 16 N/A
4:55 pm 16:55 Partly Cloudy 78 25.5 49 9.7 37 37 S 8 13 29.85 1011 10 16 N/A
5:15 pm 17:15 Sunny 76 24.7 49 9.3 38 38 SSE 10 17 29.85 1011 10 16 N/A
5:35 pm 17:35 Partly Cloudy 74 23.3 51 10.4 44 44 S 8 13 29.85 1011 10 16 N/A
5:55 pm 17:55 Partly Cloudy 73 23 50 10.1 44 44 S 8 13 29.88 1012 10 16 N/A
6:15 pm 18:15 Mostly Cloudy 72 22.4 52 11.1 49 49 S 7 11 29.88 1012 10 16 N/A
6:35 pm 18:35 Cloudy 71 21.6 53 11.7 53 53 S 8 13 29.88 1012 10 16 N/A
6:55 pm 18:55 Partly Cloudy 70 21.2 52 11 52 52 S 8 13 29.88 1012 10 16 N/A
7:15 pm 19:15 Mostly Cloudy 70 21 51 10.8 52 52 S 9 15 29.88 1012 10 16 N/A
7:35 pm 19:35 Mostly Cloudy 66 18.9 53 11.7 63 63 WSW 22 35 29.94 1014 10 16 N/A
7:55 pm 19:55 Partly Cloudy 63 17.3 53 11.7 70 70 SW 22 35 29.94 1014 10 16 N/A
8:15 pm 20:15 Clear 63 17 53 11.8 72 72 SW 17 28 29.94 1014 10 16 N/A
8:35 pm 20:35 Clear 64 17.6 52 11.1 66 66 SSW 25 41 29.94 1014 10 16 N/A
8:55 pm 20:55 Clear 63 17.2 52 11.2 68 68 S 14 22 29.94 1014 10 16 N/A
9:15 pm 21:15 Clear 62 16.8 52 11.3 70 70 SSE 13 20 29.94 1014 10 16 N/A
9:35 pm 21:35 Clear 64 17.5 51 10.7 65 65 SE 14 22 29.91 1013 10 16 N/A
9:55 pm 21:55 Clear 64 17.8 51 10.3 62 62 ESE 8 13 29.91 1013 10 16 N/A
10:15 pm 22:15 Clear 61 16.3 51 10.8 70 70 SSW 6 9 29.91 1013 10 16 N/A
10:35 pm 22:35 Clear 59 14.8 52 11 78 78 N N/A 29.94 1014 10 16 N/A
10:55 pm 22:55 Clear 57 13.7 51 10.7 82 82 N N/A 29.94 1014 10 16 N/A
11:15 pm 23:15 Clear 57 13.8 51 10.5 81 81 SSW 5 7 29.94 1014 10 16 N/A
11:35 pm 23:35 Clear 56 13.5 51 10.5 82 82 SW 3 6 29.97 1015 10 16 N/A
11:55 pm 23:55 Clear 55 13 51 10.4 84 84 N N/A 29.94 1014 10 16 N/A

Powered by AerisWeather